Location: Bergheim
(50.9593°N, 6.6400°E)
Time: 12:39:50
(UTC+01:00)

ISS - Pass Details

Date: 26 November 2019
Orbit: 411 x 421 km, 51.6° (Epoch: 15 December)

Event Time Altitude Azimuth Distance (km) Brightness Sun altitude
Rises 18:22:55 0° 235° (SW) 2,350 1.4 -16.5°
Reaches altitude 10° 18:25:03 10° 229° (SW) 1,492 0.0 -16.8°
Maximum altitude 18:28:16 46° 155° (SSE) 570 -3.2 -17.3°
Enters shadow 18:28:49 41° 123° (ESE) 617 -3.3 -17.4°
